Location: Arezzo
(43.4170°N, 11.8830°E)
Time: 02:23:20
(UTC+01:00)

STARLINK-2711 - Pass Details

Date: 28 October 2021
Orbit: 545 x 549 km, 53.1° (Epoch: 30 November)

Event Time Altitude Azimuth Distance (km) Brightness Sun altitude
Exits shadow 04:34:03 13° 101° (E) 1,607 6.6 -34.6°
Drops below altitude 10° 04:34:57 10° 90° (E) 1,802 7.0 -34.4°
Sets 04:37:55 0° 68° (ENE) 2,714 8.2 -33.9°
